Theta_e
323 322 324 324 323 322 320 321 321 321 320 320 319 319 318 317 317 318 318 318 317 316 315 315 315 315 315 315 314 314 313 312 314 318 320 321 320 319 319 319 319 320 321
322 320 320 320 321 322 321 318 316 316 316 315 314 314 315 315 314 313 313 312 311 310 309 308 307 306 306 306 307 308 310 311 312 312 314 317 318 320 318 317 318 319 319
321 321 320 317 318 318 317 315 313 311 310 309 309 309 310 309 309 310 309 307 307 307 306 306 305 305 304 304 304 304 305 305 306 308 310 313 316 316 318 317 313 314 316
318 320 319 317 316 315 313 311 309 308 307 307 307 306 306 306 306 306 306 305 305 305 305 305 305 304 304 304 304 304 304 304 305 305 307 307 310 311 313 310 310 310 316
318 317 316 315 314 312 310 309 307 306 306 305 305 305 305 304 304 304 304 305 305 305 306 305 305 305 305 305 305 305 305 305 306 309 313 316 309 309 309 315 313 315 315
318 316 315 314 313 311 309 308 306 306 305 305 304 304 304 304 304 304 305 306 307 308 307 306 306 306 305 305 305 305 305 305 309 312 312 313 314 311 313 315 316 317 317
319 316 314 313 312 310 309 308 306 306 305 305 305 305 305 305 305 305 305 306 308 309 307 306 307 306 305 306 305 305 305 305 307 315 313 310 308 312 313 313 317 318 318
319 317 314 312 311 310 309 308 307 306 305 305 305 305 306 306 306 306 306 307 308 308 307 305 308 305 306 306 306 306 306 306 306 311 313 313 313 311 311 312 311 317 317
320 318 315 313 312 310 309 308 307 306 305 305 305 306 306 305 306 305 306 306 306 306 306 306 307 305 307 306 306 306 306 307 305 306 312 313 314 314 315 313 308 309 315
320 318 317 315 313 312 310 309 308 306 305 306 306 306 306 305 305 305 305 305 305 305 305 306 305 307 306 307 307 306 304 306 306 305 311 312 312 313 313 312 314 314 315
321 319 318 317 315 314 312 310 308 308 306 306 306 306 306 305 305 305 304 305 305 305 305 305 305 305 306 307 307 306 305 304 306 306 310 312 310 312 313 312 313 314 309
321 321 320 318 316 315 313 311 309 308 308 307 306 306 306 305 305 305 305 305 305 307 305 304 304 305 305 307 307 306 304 304 306 306 307 308 307 311 312 311 310 311 309
321 321 321 320 318 316 314 312 310 309 308 308 307 306 306 305 305 305 305 305 305 305 305 305 304 303 304 305 306 305 303 304 305 306 306 307 307 307 307 308 308 306 306
320 319 319 319 319 317 316 314 312 310 309 308 307 306 306 305 305 305 305 305 305 305 305 304 304 303 303 305 306 305 303 303 305 306 305 306 306 304 304 304 304 305 304
319 318 317 318 319 318 317 317 314 312 310 309 308 307 306 305 305 305 306 306 305 304 304 304 304 303 303 304 305 305 303 302 303 305 305 305 305 303 303 303 303 303 302
310 313 316 315 316 316 316 316 316 313 310 310 309 307 306 305 305 306 307 306 305 305 304 304 303 303 303 304 304 304 303 302 303 304 304 305 304 303 303 303 303 302 301
310 310 310 315 316 315 315 315 316 315 312 310 309 307 306 306 306 307 306 305 305 305 304 303 303 303 302 302 302 302 301 301 302 304 304 305 304 304 304 303 302 300 300
309 309 310 311 314 314 315 315 314 314 314 311 310 307 307 306 306 306 305 305 306 304 303 303 302 302 302 301 301 301 301 301 302 302 304 304 303 304 301 301 300 300 299
308 310 310 310 312 312 313 313 313 313 314 313 311 308 307 306 306 305 305 305 303 303 303 303 302 301 301 301 301 301 300 300 300 301 301 303 302 302 301 301 300 299 298
298 305 308 310 310 311 312 311 311 312 313 312 311 308 307 305 306 305 305 304 302 302 301 302 302 301 301 301 301 300 300 299 299 300 301 301 301 302 300 299 299 298 297
294 295 296 304 308 309 309 310 311 312 312 311 310 308 306 305 305 303 303 302 302 301 301 302 300 300 300 300 300 299 299 299 299 300 300 300 300 299 298 298 298 297 296
293 294 294 295 297 306 307 308 308 309 309 310 309 307 306 305 304 302 300 300 300 300 300 299 299 298 298 298 297 298 299 298 298 299 299 299 298 298 298 298 297 296 295
292 293 293 294 295 301 305 306 307 308 308 308 308 307 305 304 302 300 300 300 300 299 297 296 297 297 298 298 298 298 298 298 298 298 299 298 297 297 297 296 296 295 295
292 293 293 294 294 294 300 303 305 305 306 306 306 306 304 302 300 300 299 298 298 297 296 296 296 296 297 297 296 296 297 298 298 297 297 297 295 296 295 294 293 294 293
292 293 293 293 294 295 297 299 302 304 305 305 305 304 301 300 299 297 297 296 296 296 295 295 295 296 296 296 296 297 297 297 297 296 296 296 294 294 292 291 291 292 292
292 293 293 294 294 296 296 299 302 303 305 301 301 300 300 300 297 296 297 296 295 295 295 294 294 294 294 295 295 295 295 296 296 295 294 295 294 294 290 290 290 291 290
Wind_Speed
6 6 6 7 8 6 5 6 7 8 9 9 9 9 8 9 9 9 10 11 12 13 12 13 14 14 15 15 15 16 16 17 18 19 19 19 19 19 18 18 19 20 20
10 9 8 8 8 9 9 9 9 10 10 11 11 11 12 12 12 12 12 12 12 11 12 12 13 14 15 15 15 16 17 18 19 19 19 20 22 22 23 23 23 22 22
12 12 10 10 9 11 11 11 11 12 11 11 10 11 10 10 11 10 10 10 11 12 12 13 14 14 14 15 15 16 17 18 20 20 20 21 21 21 22 23 23 23 23
12 14 13 12 12 12 12 13 12 12 12 11 10 10 10 10 10 11 11 11 11 12 13 14 15 15 15 15 16 16 17 19 19 19 19 20 20 21 22 22 22 22 20
13 14 15 14 13 13 13 13 13 13 12 11 11 10 10 11 11 12 12 12 12 11 12 13 13 14 15 16 17 18 19 19 18 17 17 18 20 20 21 19 20 20 18
14 15 16 15 15 15 14 14 14 13 13 12 11 11 11 11 12 12 12 11 10 10 11 13 14 14 15 17 17 19 21 19 17 17 17 16 18 20 19 18 20 19 19
16 16 17 17 17 16 16 15 15 15 13 12 12 11 11 12 12 13 11 11 10 12 13 15 14 14 16 17 18 19 17 15 15 15 17 18 18 19 20 20 19 19 18
17 17 18 18 18 18 18 17 17 16 15 14 13 11 8 9 11 12 12 12 12 13 14 17 16 17 17 17 16 17 17 16 14 12 15 17 18 20 20 20 20 18 17
18 18 19 20 20 20 19 19 18 18 17 16 14 11 6 5 6 12 12 12 13 13 16 17 19 19 16 17 16 17 17 16 15 12 12 14 14 14 15 20 20 20 18
19 19 20 21 21 22 22 21 20 20 20 18 18 17 16 16 9 7 9 10 13 15 17 20 18 18 18 15 16 17 17 17 14 12 10 13 13 14 19 21 12 11 11
21 21 21 22 23 24 24 23 23 23 23 22 21 19 18 18 18 17 17 12 14 17 19 21 20 19 18 16 16 18 18 16 14 11 9 12 13 12 8 16 14 15 23
20 22 23 24 25 25 26 26 26 26 25 25 24 23 22 20 18 18 17 18 21 23 22 21 20 19 19 18 17 17 18 16 13 10 8 10 11 5 7 9 9 9 11
21 22 24 26 26 26 27 28 29 29 29 29 27 26 24 23 21 20 19 20 24 25 23 23 20 18 18 19 17 17 15 14 11 9 9 10 9 9 9 9 10 10 7
23 23 24 25 26 26 27 29 31 32 32 31 31 29 27 24 22 20 18 21 24 23 25 24 21 18 17 18 17 16 15 13 10 10 10 11 10 9 9 8 5 2 3
27 26 25 26 27 26 28 30 33 34 34 34 34 32 30 26 24 19 20 23 19 22 24 23 18 16 16 17 17 16 14 12 10 12 11 11 9 9 8 6 3 2 2
30 29 28 26 28 29 31 33 35 36 37 37 36 34 32 29 25 22 23 20 22 23 26 22 19 16 15 16 16 15 16 14 10 11 13 12 11 10 9 7 7 5 1
28 30 29 28 30 31 33 35 36 36 39 40 38 36 34 30 28 24 23 19 22 24 26 22 19 17 19 18 16 14 11 10 10 12 12 12 13 14 17 12 8 6 5
24 25 26 28 29 30 31 33 35 36 39 41 40 38 35 31 27 25 20 20 26 21 23 22 19 19 18 14 12 13 16 14 11 13 11 7 10 14 10 10 7 3 3
23 24 25 25 26 28 30 32 33 34 41 40 42 39 35 30 29 21 20 26 22 20 22 23 22 21 20 16 15 18 19 23 19 17 16 18 16 28 18 14 7 2 2
27 27 27 26 27 28 30 32 32 37 39 41 42 38 36 35 29 24 27 25 21 21 22 24 26 25 23 19 19 21 23 24 20 20 20 20 13 27 21 9 4 4 2
29 29 29 29 31 30 30 32 33 36 39 38 39 38 35 33 28 31 25 20 19 21 21 22 25 25 25 25 23 23 20 18 17 19 17 10 28 22 17 9 6 4 2
28 28 29 31 30 31 35 32 28 33 33 38 33 34 31 29 31 24 22 20 20 23 24 26 26 27 26 24 20 16 16 17 17 16 13 25 25 19 12 9 5 3 2
34 31 31 30 32 31 29 34 33 34 39 39 36 34 35 29 27 17 20 22 23 23 21 20 20 20 19 19 15 12 18 20 21 19 24 28 20 13 12 9 7 4 3
38 35 35 32 33 33 32 31 27 28 31 35 40 35 28 29 18 19 20 20 22 20 20 21 21 21 21 17 16 19 17 17 21 18 30 25 21 17 15 11 7 5 4
37 38 39 36 34 34 33 34 29 32 37 36 32 25 27 18 15 18 16 17 19 17 16 16 18 19 19 17 18 16 16 19 21 20 27 25 24 19 16 12 7 6 5
36 37 39 38 37 34 32 31 28 37 33 23 27 25 21 16 17 14 14 16 16 12 13 15 17 20 22 22 22 23 22 22 21 20 28 21 26 23 17 14 12 10 6
Wind_Direction
226 240 218 230 239 254 269 270 265 267 272 280 282 281 283 280 281 281 285 289 295 301 303 304 304 305 306 304 303 302 299 294 292 290 288 287 286 286 287 287 287 285 286
231 248 243 247 248 257 270 277 275 276 275 277 278 280 282 283 287 290 292 296 300 302 306 307 307 308 306 302 298 295 295 296 294 292 291 285 281 281 282 283 283 283 283
239 245 261 269 265 266 268 274 274 275 274 274 272 273 277 282 287 287 293 297 300 307 314 315 314 313 312 308 304 305 301 294 290 290 289 289 290 287 282 279 280 282 285
248 247 258 266 268 272 276 278 278 277 275 275 273 271 275 277 278 283 288 293 300 306 310 311 312 312 309 308 306 308 307 309 303 294 294 290 291 288 285 283 281 280 278
261 258 260 263 266 269 272 275 275 274 272 271 269 268 272 273 277 283 289 294 300 303 305 309 314 314 312 310 310 314 313 315 313 311 307 308 296 291 288 288 284 284 277
265 263 262 264 267 269 270 273 272 270 268 267 269 270 271 271 271 273 278 287 292 298 304 308 313 313 313 310 310 310 317 318 319 322 317 302 306 299 296 293 283 278 279
270 267 264 264 265 268 270 269 268 267 264 265 269 270 272 268 265 264 266 275 283 292 300 307 307 310 312 310 312 314 314 312 317 332 328 316 301 294 294 287 286 282 277
268 268 266 266 266 267 269 271 268 264 263 264 266 276 277 265 255 259 262 267 277 287 293 301 299 308 307 310 312 315 313 315 317 329 333 332 320 309 300 289 275 279 277
275 273 269 268 267 268 269 270 267 265 265 262 261 257 272 256 257 271 265 268 274 285 291 292 292 300 301 306 312 318 314 310 308 312 325 336 343 340 318 302 283 269 277
277 274 272 269 269 269 269 271 269 266 263 262 260 258 258 264 274 279 274 268 281 289 289 286 291 294 298 300 305 313 315 305 300 302 320 325 328 328 330 338 306 249 273
276 274 274 273 271 270 269 267 265 264 263 259 258 261 261 260 259 259 278 282 292 296 292 289 288 289 291 290 297 307 310 309 290 293 311 323 306 332 338 39 91 126 93
283 276 277 279 277 274 270 268 266 264 263 260 256 257 261 261 264 258 262 279 287 296 291 287 284 283 285 285 292 302 305 308 284 287 299 302 303 318 357 347 316 297 292
288 287 284 282 281 281 277 271 267 265 263 261 260 260 259 260 260 261 264 278 280 285 292 291 286 282 279 281 287 299 304 294 289 279 284 292 291 301 305 334 5 15 34
286 286 281 275 272 275 276 273 268 264 262 261 258 257 259 258 254 255 267 274 278 280 290 291 288 281 273 276 282 289 300 293 281 281 270 280 295 301 304 301 315 354 50
281 281 280 274 269 265 270 272 270 266 262 261 259 258 257 255 250 253 266 275 272 280 288 291 287 284 272 270 272 275 288 295 270 269 264 275 284 296 306 309 291 295 288
284 281 279 279 277 269 267 272 273 269 263 259 257 255 255 254 248 253 272 268 275 276 270 278 284 281 269 267 269 275 293 288 263 259 266 266 275 288 290 284 288 248 179
291 287 280 276 275 274 272 274 275 275 267 262 257 254 253 249 245 258 270 263 274 270 265 273 282 282 273 269 265 272 291 289 269 260 264 256 273 282 275 261 244 227 218
298 293 287 279 275 276 275 273 275 274 273 264 260 252 251 248 246 262 258 271 283 266 263 271 279 282 285 273 259 272 288 284 269 264 254 226 277 223 259 248 236 259 208
306 297 288 280 278 278 277 278 277 279 277 270 262 253 249 247 255 250 270 288 269 263 260 262 272 274 276 259 267 276 283 284 283 269 264 232 265 260 244 212 219 229 235
315 308 298 290 276 277 277 274 274 276 279 273 263 250 246 243 246 248 276 266 257 258 256 260 267 263 260 257 272 276 282 286 275 264 261 266 269 204 190 181 185 178 215
316 312 309 299 289 283 277 279 278 281 278 274 270 250 241 244 250 253 256 246 253 256 252 254 260 269 271 273 273 282 276 276 276 248 254 241 185 179 171 167 171 191 227
323 320 314 308 299 286 286 281 284 286 281 277 265 253 241 243 251 234 247 256 254 249 252 258 264 265 269 270 273 266 270 276 232 234 231 191 192 185 173 182 186 205 233
322 319 319 309 301 291 285 283 280 282 281 267 257 246 240 241 228 236 248 253 251 248 251 263 261 268 264 251 259 269 271 271 254 225 198 178 186 183 173 185 193 214 250
321 320 319 312 305 302 292 287 279 280 265 270 254 242 239 229 227 242 250 249 242 240 248 257 257 256 261 261 275 270 264 260 236 241 201 188 191 186 174 179 193 241 229
319 318 316 310 309 300 293 285 284 273 267 263 245 219 211 222 228 240 243 243 241 245 257 257 257 255 259 260 256 248 246 241 242 227 206 209 180 175 172 176 206 244 232
316 316 312 309 309 304 299 284 279 267 251 235 220 225 224 205 224 240 242 236 238 241 247 255 261 266 259 249 250 253 246 246 234 209 201 195 183 179 169 186 207 239 259